Year,Month,Day,Hour,Minute,Value (Times are PST for temperature in C)
2015,07,14,00,00,13.00
2015,07,14,00,01,13.00
2015,07,14,00,02,13.00
2015,07,14,00,03,13.00
2015,07,14,00,04,13.00
2015,07,14,00,05,12.90
2015,07,14,00,06,12.90
2015,07,14,00,07,12.90
2015,07,14,00,08,12.90
2015,07,14,00,09,12.90
2015,07,14,00,10,12.90
2015,07,14,00,11,12.80
2015,07,14,00,12,12.80
2015,07,14,00,13,12.80
2015,07,14,00,14,12.80
2015,07,14,00,15,12.70
2015,07,14,00,16,12.70
2015,07,14,00,17,12.70
2015,07,14,00,18,12.70
2015,07,14,00,19,12.70
2015,07,14,00,20,12.70
2015,07,14,00,21,12.70
2015,07,14,00,22,12.70
2015,07,14,00,23,12.70
2015,07,14,00,24,12.70
2015,07,14,00,25,12.70
2015,07,14,00,26,12.70
2015,07,14,00,27,12.70
2015,07,14,00,28,12.70
2015,07,14,00,29,12.70
2015,07,14,00,30,12.70
2015,07,14,00,31,12.70
2015,07,14,00,32,12.60
2015,07,14,00,33,12.60
2015,07,14,00,34,12.60
2015,07,14,00,35,12.60
2015,07,14,00,36,12.60
2015,07,14,00,37,12.60
2015,07,14,00,38,12.60
2015,07,14,00,39,12.60
2015,07,14,00,40,12.60
2015,07,14,00,41,12.60
2015,07,14,00,42,12.60
2015,07,14,00,43,12.60
2015,07,14,00,44,12.60
2015,07,14,00,45,12.60
2015,07,14,00,46,12.60
2015,07,14,00,47,12.50
2015,07,14,00,48,12.50
2015,07,14,00,49,12.50
2015,07,14,00,50,12.50
2015,07,14,00,51,12.50
2015,07,14,00,52,12.50
2015,07,14,00,53,12.50
2015,07,14,00,54,12.50
2015,07,14,00,55,12.50
2015,07,14,00,56,12.40
2015,07,14,00,57,12.40
2015,07,14,00,58,12.40
2015,07,14,00,59,12.40
2015,07,14,01,00,12.40
2015,07,14,01,01,12.30
2015,07,14,01,02,12.30
2015,07,14,01,03,12.30
2015,07,14,01,04,12.30
2015,07,14,01,05,12.20
2015,07,14,01,06,12.20
2015,07,14,01,07,12.20
2015,07,14,01,08,12.20
2015,07,14,01,09,12.20
2015,07,14,01,10,12.20
2015,07,14,01,11,12.20
2015,07,14,01,12,12.20
2015,07,14,01,13,12.20
2015,07,14,01,14,12.20
2015,07,14,01,15,12.20
2015,07,14,01,16,12.20
2015,07,14,01,17,12.10
2015,07,14,01,18,12.10
2015,07,14,01,19,12.10
2015,07,14,01,20,12.10
2015,07,14,01,21,12.10
2015,07,14,01,22,12.10
2015,07,14,01,23,12.10
2015,07,14,01,24,12.10
2015,07,14,01,25,12.10
2015,07,14,01,26,12.10
2015,07,14,01,27,12.10
2015,07,14,01,28,12.10
2015,07,14,01,29,12.10
2015,07,14,01,30,12.10
2015,07,14,01,31,12.10
2015,07,14,01,32,12.10
2015,07,14,01,33,12.20
2015,07,14,01,34,12.20
2015,07,14,01,35,12.10
2015,07,14,01,36,12.10
2015,07,14,01,37,12.10
2015,07,14,01,38,12.10
2015,07,14,01,39,12.20
2015,07,14,01,40,12.20
2015,07,14,01,41,12.20
2015,07,14,01,42,12.20
2015,07,14,01,43,12.20
2015,07,14,01,44,12.20
2015,07,14,01,45,12.10
2015,07,14,01,46,12.10
2015,07,14,01,47,12.10
2015,07,14,01,48,12.10
2015,07,14,01,49,12.10
2015,07,14,01,50,12.10
2015,07,14,01,51,12.10
2015,07,14,01,52,12.10
2015,07,14,01,53,12.10
2015,07,14,01,54,12.10
2015,07,14,01,55,12.10
2015,07,14,01,56,12.10
2015,07,14,01,57,12.00
2015,07,14,01,58,12.00
2015,07,14,01,59,11.90
2015,07,14,02,00,11.90
2015,07,14,02,01,11.90
2015,07,14,02,02,11.90
2015,07,14,02,03,11.80
2015,07,14,02,04,11.80
2015,07,14,02,05,11.80
2015,07,14,02,06,11.80
2015,07,14,02,07,11.80
2015,07,14,02,08,11.80
2015,07,14,02,09,11.80
2015,07,14,02,10,11.80
2015,07,14,02,11,11.80
2015,07,14,02,12,11.90
2015,07,14,02,13,11.90
2015,07,14,02,14,11.90
2015,07,14,02,15,11.90
2015,07,14,02,16,11.90
2015,07,14,02,17,11.90
2015,07,14,02,18,11.80
2015,07,14,02,19,11.80
2015,07,14,02,20,11.80
2015,07,14,02,21,11.80
2015,07,14,02,22,11.80
2015,07,14,02,23,11.80
2015,07,14,02,24,11.80
2015,07,14,02,25,11.80
2015,07,14,02,26,11.80
2015,07,14,02,27,11.80
2015,07,14,02,28,11.80
2015,07,14,02,29,11.80
2015,07,14,02,30,11.80
2015,07,14,02,31,11.80
2015,07,14,02,32,11.80
2015,07,14,02,33,11.80
2015,07,14,02,34,11.80
2015,07,14,02,35,11.80
2015,07,14,02,36,11.80
2015,07,14,02,37,11.80
2015,07,14,02,38,11.70
2015,07,14,02,39,11.70
2015,07,14,02,40,11.70
2015,07,14,02,41,11.70
2015,07,14,02,42,11.60
2015,07,14,02,43,11.60
2015,07,14,02,44,11.60
2015,07,14,02,45,11.60
2015,07,14,02,46,11.60
2015,07,14,02,47,11.60
2015,07,14,02,48,11.60
2015,07,14,02,49,11.50
2015,07,14,02,50,11.60
2015,07,14,02,51,11.60
2015,07,14,02,52,11.60
2015,07,14,02,53,11.60
2015,07,14,02,54,11.60
2015,07,14,02,55,11.60
2015,07,14,02,56,11.60
2015,07,14,02,57,11.60
2015,07,14,02,58,11.60
2015,07,14,02,59,11.60
2015,07,14,03,00,11.60
2015,07,14,03,01,11.60
2015,07,14,03,02,11.50
2015,07,14,03,03,11.60
2015,07,14,03,04,11.60
2015,07,14,03,05,11.60
2015,07,14,03,06,11.60
2015,07,14,03,07,11.60
2015,07,14,03,08,11.60
2015,07,14,03,09,11.60
2015,07,14,03,10,11.60
2015,07,14,03,11,11.60
2015,07,14,03,12,11.60
2015,07,14,03,13,11.60
2015,07,14,03,14,11.60
2015,07,14,03,15,11.60
2015,07,14,03,16,11.60
2015,07,14,03,17,11.60
2015,07,14,03,18,11.60
2015,07,14,03,19,11.60
2015,07,14,03,20,11.60
2015,07,14,03,21,11.50
2015,07,14,03,22,11.50
2015,07,14,03,23,11.50
2015,07,14,03,24,11.40
2015,07,14,03,25,11.40
2015,07,14,03,26,11.40
2015,07,14,03,27,11.40
2015,07,14,03,28,11.30
2015,07,14,03,29,11.30
2015,07,14,03,30,11.30
2015,07,14,03,31,11.30
2015,07,14,03,32,11.30
2015,07,14,03,33,11.30
2015,07,14,03,34,11.30
2015,07,14,03,35,11.30
2015,07,14,03,36,11.30
2015,07,14,03,37,11.30
2015,07,14,03,38,11.30
2015,07,14,03,39,11.20
2015,07,14,03,40,11.20
2015,07,14,03,41,11.20
2015,07,14,03,42,11.10
2015,07,14,03,43,11.10
2015,07,14,03,44,11.20
2015,07,14,03,45,11.20
2015,07,14,03,46,11.20
2015,07,14,03,47,11.20
2015,07,14,03,48,11.20
2015,07,14,03,49,11.20
2015,07,14,03,50,11.20
2015,07,14,03,51,11.20
2015,07,14,03,52,11.20
2015,07,14,03,53,11.20
2015,07,14,03,54,11.20
2015,07,14,03,55,11.20
2015,07,14,03,56,11.20
2015,07,14,03,57,11.10
2015,07,14,03,58,11.10
2015,07,14,03,59,11.10
2015,07,14,04,00,11.10
2015,07,14,04,01,11.10
2015,07,14,04,02,11.10
2015,07,14,04,03,11.10
2015,07,14,04,04,11.10
2015,07,14,04,05,11.10
2015,07,14,04,06,11.00
2015,07,14,04,07,11.00
2015,07,14,05,02,11.20
2015,07,14,05,03,11.20
2015,07,14,05,04,11.10
2015,07,14,05,05,11.10
2015,07,14,05,06,11.10
2015,07,14,05,07,11.00
2015,07,14,05,08,11.00
2015,07,14,05,09,10.90
2015,07,14,05,10,10.90
2015,07,14,05,11,10.90
2015,07,14,05,12,10.90
2015,07,14,05,13,10.80
2015,07,14,05,14,10.80
2015,07,14,05,15,10.80
2015,07,14,05,16,10.80
2015,07,14,05,17,10.80
2015,07,14,05,18,10.80
2015,07,14,05,19,10.80
2015,07,14,05,20,10.80
2015,07,14,05,21,10.80
2015,07,14,05,22,10.80
2015,07,14,05,23,10.80
2015,07,14,05,24,10.70
2015,07,14,05,25,10.70
2015,07,14,05,26,10.70
2015,07,14,05,27,10.70
2015,07,14,05,28,10.80
2015,07,14,05,29,10.80
2015,07,14,05,30,10.80
2015,07,14,05,31,10.80
2015,07,14,05,32,10.80
2015,07,14,05,33,10.80
2015,07,14,05,34,10.80
2015,07,14,05,35,10.70
2015,07,14,05,36,10.70
2015,07,14,05,37,10.70
2015,07,14,05,38,10.70
2015,07,14,05,39,10.70
2015,07,14,05,40,10.70
2015,07,14,05,41,10.70
2015,07,14,05,42,10.80
2015,07,14,05,43,10.80
2015,07,14,05,44,10.80
2015,07,14,05,45,10.80
2015,07,14,05,46,10.80
2015,07,14,05,47,10.80
2015,07,14,05,48,10.80
2015,07,14,05,49,10.80
2015,07,14,05,50,10.80
2015,07,14,05,51,10.80
2015,07,14,05,52,10.80
2015,07,14,05,53,10.80
2015,07,14,05,54,10.80
2015,07,14,05,55,10.80
2015,07,14,05,56,10.80
2015,07,14,05,57,10.80
2015,07,14,05,58,10.80
2015,07,14,05,59,10.80
2015,07,14,06,00,10.80
2015,07,14,06,01,10.80
2015,07,14,06,02,10.80
2015,07,14,06,03,10.80
2015,07,14,06,04,10.70
2015,07,14,06,05,10.70
2015,07,14,06,06,10.70
2015,07,14,06,07,10.70
2015,07,14,06,08,10.60
2015,07,14,06,09,10.60
2015,07,14,06,10,10.60
2015,07,14,06,11,10.60
2015,07,14,06,12,10.60
2015,07,14,06,13,10.60
2015,07,14,06,14,10.60
2015,07,14,06,15,10.60
2015,07,14,06,16,10.60
2015,07,14,06,17,10.60
2015,07,14,06,18,10.60
2015,07,14,06,19,10.60
2015,07,14,06,20,10.60
2015,07,14,06,21,10.60
2015,07,14,06,22,10.60
2015,07,14,06,23,10.60
2015,07,14,06,24,10.60
2015,07,14,06,25,10.60
2015,07,14,06,26,10.60
2015,07,14,06,27,10.60
2015,07,14,06,28,10.60
2015,07,14,06,29,10.60
2015,07,14,06,30,10.60
2015,07,14,06,31,10.70
2015,07,14,06,32,10.70
2015,07,14,06,33,10.70
2015,07,14,06,34,10.70
2015,07,14,06,35,10.70
2015,07,14,06,36,10.70
2015,07,14,06,37,10.70
2015,07,14,06,38,10.70
2015,07,14,06,39,10.70
2015,07,14,06,40,10.70
2015,07,14,06,41,10.70
2015,07,14,06,42,10.70
2015,07,14,06,43,10.70
2015,07,14,06,44,10.70
2015,07,14,06,45,10.70
2015,07,14,06,46,10.70
2015,07,14,06,47,10.80
2015,07,14,06,48,10.80
2015,07,14,06,49,10.80
2015,07,14,06,50,10.80
2015,07,14,06,51,10.80
2015,07,14,06,52,10.80
2015,07,14,06,53,10.90
2015,07,14,06,54,10.80
2015,07,14,06,55,10.80
2015,07,14,06,56,10.80
2015,07,14,06,57,10.80
2015,07,14,06,58,10.80
2015,07,14,06,59,10.80
2015,07,14,07,00,10.90
2015,07,14,07,01,10.90
2015,07,14,07,02,10.90
2015,07,14,07,03,10.90
2015,07,14,07,04,10.90
2015,07,14,07,05,10.90
2015,07,14,07,06,10.90
2015,07,14,07,07,10.90
2015,07,14,07,08,10.90
2015,07,14,07,09,10.90
2015,07,14,07,10,11.00
2015,07,14,07,11,11.00
2015,07,14,07,12,11.00
2015,07,14,07,13,11.10
2015,07,14,07,14,11.10
2015,07,14,07,15,11.10
2015,07,14,07,16,11.10
2015,07,14,07,17,11.10
2015,07,14,07,18,11.10
2015,07,14,07,19,11.20
2015,07,14,07,20,11.20
2015,07,14,07,21,11.20
2015,07,14,07,22,11.20
2015,07,14,07,23,11.20
2015,07,14,07,24,11.20
2015,07,14,07,25,11.30
2015,07,14,07,26,11.30
2015,07,14,07,27,11.30
2015,07,14,07,28,11.30
2015,07,14,07,29,11.30
2015,07,14,07,30,11.30
2015,07,14,07,31,11.30
2015,07,14,07,32,11.30
2015,07,14,07,33,11.30
2015,07,14,07,34,11.40
2015,07,14,07,35,11.40
2015,07,14,07,36,11.40
2015,07,14,07,37,11.50
2015,07,14,07,38,11.50
2015,07,14,07,39,11.60
2015,07,14,07,40,11.60
2015,07,14,07,41,11.60
2015,07,14,07,42,11.60
2015,07,14,07,43,11.70
2015,07,14,07,44,11.70
2015,07,14,07,45,11.70
2015,07,14,07,46,11.70
2015,07,14,07,47,11.80
2015,07,14,07,48,11.80
2015,07,14,07,49,11.90
2015,07,14,07,50,12.00
2015,07,14,07,51,12.10
2015,07,14,07,52,12.10
2015,07,14,07,53,12.20
2015,07,14,07,54,12.30
2015,07,14,07,55,12.30
2015,07,14,07,56,12.30
2015,07,14,07,57,12.40
2015,07,14,07,58,12.40
2015,07,14,07,59,12.50
2015,07,14,08,00,12.60
2015,07,14,08,01,12.60
2015,07,14,08,02,12.60
2015,07,14,08,03,12.70
2015,07,14,08,04,12.80
2015,07,14,08,05,12.90
2015,07,14,08,06,12.90
2015,07,14,08,07,12.90
2015,07,14,08,08,13.00
2015,07,14,08,09,13.00
2015,07,14,08,10,13.10
2015,07,14,08,11,13.10
2015,07,14,08,12,13.10
2015,07,14,08,13,13.20
2015,07,14,08,14,13.20
2015,07,14,08,15,13.30
2015,07,14,08,16,13.30
2015,07,14,08,17,13.40
2015,07,14,08,18,13.50
2015,07,14,08,19,13.50
2015,07,14,08,20,13.50
2015,07,14,08,21,13.60
2015,07,14,08,22,13.70
2015,07,14,08,23,13.70
2015,07,14,08,24,13.70
2015,07,14,08,25,13.80
2015,07,14,08,26,13.80
2015,07,14,08,27,13.80
2015,07,14,08,28,13.90
2015,07,14,08,29,14.00
2015,07,14,08,30,14.10
2015,07,14,08,31,14.20
2015,07,14,08,32,14.40
2015,07,14,08,33,14.50
2015,07,14,08,34,14.60
2015,07,14,08,35,14.60
2015,07,14,08,36,14.80
2015,07,14,08,37,14.80
2015,07,14,08,38,14.90
2015,07,14,08,39,14.90
2015,07,14,08,40,14.90
2015,07,14,08,41,15.00
2015,07,14,08,42,15.10
2015,07,14,08,43,15.10
2015,07,14,08,44,15.20
2015,07,14,08,45,15.30
2015,07,14,08,46,15.30
2015,07,14,08,47,15.40
2015,07,14,08,48,15.40
2015,07,14,08,49,15.50
2015,07,14,08,50,15.60
2015,07,14,08,51,15.70
2015,07,14,08,52,15.70
2015,07,14,08,53,15.70
2015,07,14,08,54,15.70
2015,07,14,08,55,15.70
2015,07,14,08,56,15.70
2015,07,14,08,57,15.70
2015,07,14,08,58,15.80
2015,07,14,08,59,15.80
2015,07,14,09,00,15.90
2015,07,14,09,01,15.90
2015,07,14,09,02,15.90
2015,07,14,09,03,16.00
2015,07,14,09,04,16.00
2015,07,14,09,05,16.10
2015,07,14,09,06,16.10
2015,07,14,09,07,16.20
2015,07,14,09,08,16.20
2015,07,14,09,09,16.20
2015,07,14,09,10,16.30
2015,07,14,09,11,16.30
2015,07,14,09,12,16.30
2015,07,14,09,13,16.40
2015,07,14,09,14,16.40
2015,07,14,09,15,16.40
2015,07,14,09,16,16.40
2015,07,14,09,17,16.40
2015,07,14,09,18,16.40
2015,07,14,09,19,16.40
2015,07,14,09,20,16.40
2015,07,14,09,21,16.40
2015,07,14,09,22,16.40
2015,07,14,09,23,16.40
2015,07,14,09,24,16.40
2015,07,14,09,25,16.40
2015,07,14,09,26,16.40
2015,07,14,09,27,16.40
2015,07,14,09,28,16.50
2015,07,14,09,29,16.50
2015,07,14,09,30,16.60
2015,07,14,09,31,16.50
2015,07,14,09,32,16.40
2015,07,14,09,33,16.40
2015,07,14,09,34,16.40
2015,07,14,09,35,16.40
2015,07,14,09,36,16.40
2015,07,14,09,37,16.40
2015,07,14,09,38,16.40
2015,07,14,09,39,16.50
2015,07,14,09,40,16.50
2015,07,14,09,41,16.50
2015,07,14,09,42,16.60
2015,07,14,09,43,16.60
2015,07,14,09,44,16.60
2015,07,14,09,45,16.60
2015,07,14,09,46,16.60
2015,07,14,09,47,16.70
2015,07,14,09,48,16.70
2015,07,14,09,49,16.70
2015,07,14,09,50,16.70
2015,07,14,09,51,16.70
2015,07,14,09,52,16.60
2015,07,14,09,53,16.50
2015,07,14,09,54,16.50
2015,07,14,09,55,16.50
2015,07,14,09,56,16.50
2015,07,14,09,57,16.50
2015,07,14,09,58,16.50
2015,07,14,09,59,16.50
2015,07,14,10,00,16.50
2015,07,14,10,01,16.50
2015,07,14,10,02,16.50
2015,07,14,10,03,16.50
2015,07,14,10,04,16.60
2015,07,14,10,05,16.60
2015,07,14,10,06,16.70
2015,07,14,10,07,16.70
2015,07,14,10,08,16.70
2015,07,14,10,09,16.70
2015,07,14,10,10,16.70
2015,07,14,10,11,16.70
2015,07,14,10,12,16.70
2015,07,14,10,13,16.70
2015,07,14,10,14,16.80
2015,07,14,10,15,16.80
2015,07,14,10,16,16.90
2015,07,14,10,17,16.90
2015,07,14,10,18,16.90
2015,07,14,10,19,17.00
2015,07,14,10,20,17.10
2015,07,14,10,21,17.10
2015,07,14,10,22,17.20
2015,07,14,10,23,17.30
2015,07,14,10,24,17.30
2015,07,14,10,25,17.30
2015,07,14,10,26,17.40
2015,07,14,10,27,17.40
2015,07,14,10,28,17.50
2015,07,14,10,29,17.50
2015,07,14,10,30,17.60
2015,07,14,10,31,17.60
2015,07,14,10,32,17.60
2015,07,14,10,33,17.60
2015,07,14,10,34,17.70
2015,07,14,10,35,17.70
2015,07,14,10,36,17.70
2015,07,14,10,37,17.60
2015,07,14,10,38,17.60
2015,07,14,10,39,17.60
2015,07,14,10,40,17.60
2015,07,14,10,41,17.60
2015,07,14,10,42,17.60
2015,07,14,10,43,17.60
2015,07,14,10,44,17.50
2015,07,14,10,45,17.50
2015,07,14,10,46,17.50
2015,07,14,10,47,17.60
2015,07,14,10,48,17.60
2015,07,14,10,49,17.60
2015,07,14,10,50,17.60
2015,07,14,10,51,17.60
2015,07,14,10,52,17.70
2015,07,14,10,53,17.80
2015,07,14,10,54,17.90
2015,07,14,10,55,17.90
2015,07,14,10,56,17.90
2015,07,14,10,57,18.00
2015,07,14,10,58,18.00
2015,07,14,10,59,18.00
2015,07,14,11,00,18.00
2015,07,14,11,01,18.00
2015,07,14,11,02,18.10
2015,07,14,11,03,18.10
2015,07,14,11,04,18.10
2015,07,14,11,05,18.20
2015,07,14,11,06,18.20
2015,07,14,11,07,18.30
2015,07,14,11,08,18.30
2015,07,14,11,09,18.30
2015,07,14,11,10,18.30
2015,07,14,11,11,18.20
2015,07,14,11,12,18.20
2015,07,14,11,13,18.20
2015,07,14,11,14,18.30
2015,07,14,11,15,18.30
2015,07,14,11,16,18.40
2015,07,14,11,17,18.50
2015,07,14,11,18,18.50
2015,07,14,11,19,18.60
2015,07,14,11,20,18.60
2015,07,14,11,21,18.70
2015,07,14,11,22,18.70
2015,07,14,11,23,18.70
2015,07,14,11,24,18.70
2015,07,14,11,25,18.80
2015,07,14,11,26,18.80
2015,07,14,11,27,18.90
2015,07,14,11,28,19.00
2015,07,14,11,29,19.10
2015,07,14,11,30,19.20
2015,07,14,11,31,19.30
2015,07,14,11,32,19.30
2015,07,14,11,33,19.30
2015,07,14,11,34,19.20
2015,07,14,11,35,19.20
2015,07,14,11,36,19.10
2015,07,14,11,37,19.10
2015,07,14,11,38,19.00
2015,07,14,11,39,18.90
2015,07,14,11,40,18.90
2015,07,14,11,41,18.80
2015,07,14,11,42,18.80
2015,07,14,11,43,18.80
2015,07,14,11,44,18.80
2015,07,14,11,45,18.80
2015,07,14,11,46,18.70
2015,07,14,11,47,18.70
2015,07,14,11,48,18.60
2015,07,14,11,49,18.60
2015,07,14,11,50,18.70
2015,07,14,11,51,18.70
2015,07,14,11,52,18.70
2015,07,14,11,53,18.70
2015,07,14,11,54,18.70
2015,07,14,11,55,18.60
2015,07,14,11,56,18.60
2015,07,14,11,57,18.60
2015,07,14,11,58,18.60
2015,07,14,11,59,18.60
2015,07,14,12,00,18.60
2015,07,14,12,01,18.50
2015,07,14,12,02,18.40
2015,07,14,12,03,18.40
2015,07,14,12,04,18.30
2015,07,14,12,05,18.30
2015,07,14,12,06,18.30
2015,07,14,12,07,18.30
2015,07,14,12,08,18.30
2015,07,14,12,09,18.30
2015,07,14,12,10,18.40
2015,07,14,12,11,18.40
2015,07,14,12,12,18.40
2015,07,14,12,13,18.40
2015,07,14,12,14,18.40
2015,07,14,12,15,18.40
2015,07,14,12,16,18.30
2015,07,14,12,17,18.30
2015,07,14,12,18,18.30
2015,07,14,12,19,18.20
2015,07,14,12,20,18.20
2015,07,14,12,21,18.10
2015,07,14,12,22,18.10
2015,07,14,12,23,18.10
2015,07,14,12,24,18.10
2015,07,14,12,25,18.10
2015,07,14,12,26,18.10
2015,07,14,12,27,18.10
2015,07,14,12,28,18.10
2015,07,14,12,29,18.10
2015,07,14,12,30,18.10
2015,07,14,12,31,18.10
2015,07,14,12,32,18.20
2015,07,14,12,33,18.20
2015,07,14,12,34,18.30
2015,07,14,12,35,18.30
2015,07,14,12,36,18.30
2015,07,14,12,37,18.20
2015,07,14,12,38,18.20
2015,07,14,12,39,18.10
2015,07,14,12,40,18.00
2015,07,14,12,41,17.90
2015,07,14,12,42,17.80
2015,07,14,12,43,17.70
2015,07,14,12,44,17.70
2015,07,14,12,45,17.70
2015,07,14,12,46,17.70
2015,07,14,12,47,17.70
2015,07,14,12,48,17.80
2015,07,14,12,49,17.80
2015,07,14,12,50,17.90
2015,07,14,12,51,17.90
2015,07,14,12,52,18.00
2015,07,14,12,53,18.00
2015,07,14,12,54,18.00
2015,07,14,12,55,17.90
2015,07,14,12,56,17.90
2015,07,14,12,57,17.90
2015,07,14,12,58,17.90
2015,07,14,12,59,17.90
2015,07,14,13,00,17.90
2015,07,14,13,01,18.00
2015,07,14,13,02,18.00
2015,07,14,13,03,18.10
2015,07,14,13,04,18.10
2015,07,14,13,05,18.20
2015,07,14,13,06,18.30
2015,07,14,13,07,18.30
2015,07,14,13,08,18.40
2015,07,14,13,09,18.50
2015,07,14,13,10,18.50
2015,07,14,13,11,18.60
2015,07,14,13,12,18.70
2015,07,14,13,13,18.80
2015,07,14,13,14,19.00
2015,07,14,13,15,19.20
2015,07,14,13,16,19.30
2015,07,14,13,17,19.30
2015,07,14,13,18,19.40
2015,07,14,13,19,19.40
2015,07,14,13,20,19.50
2015,07,14,13,21,19.50
2015,07,14,13,22,19.60
2015,07,14,13,23,19.50
2015,07,14,13,24,19.50
2015,07,14,13,25,19.40
2015,07,14,13,26,19.40
2015,07,14,13,27,19.30
2015,07,14,13,28,19.20
2015,07,14,13,29,19.00
2015,07,14,13,30,18.90
2015,07,14,13,31,18.80
2015,07,14,13,32,18.70
2015,07,14,13,33,18.60
2015,07,14,13,34,18.60
2015,07,14,13,35,18.60
2015,07,14,13,36,18.70
2015,07,14,13,37,18.70
2015,07,14,13,38,18.70
2015,07,14,13,39,18.70
2015,07,14,13,40,18.70
2015,07,14,13,41,18.80
2015,07,14,13,42,18.90
2015,07,14,13,43,19.10
2015,07,14,13,44,19.40
2015,07,14,13,45,19.70
2015,07,14,13,46,20.10
2015,07,14,13,47,20.50
2015,07,14,13,48,20.80
2015,07,14,13,49,20.90
2015,07,14,13,50,21.00
2015,07,14,13,51,21.00
2015,07,14,13,52,21.10
2015,07,14,13,53,21.30
2015,07,14,13,54,21.40
2015,07,14,13,55,21.50
2015,07,14,13,56,21.70
2015,07,14,13,57,21.80
2015,07,14,13,58,21.90
2015,07,14,13,59,22.00
2015,07,14,14,00,22.10
2015,07,14,14,01,22.20
2015,07,14,14,02,22.20
2015,07,14,14,03,22.20
2015,07,14,14,04,22.20
2015,07,14,14,05,22.20
2015,07,14,14,06,22.20
2015,07,14,14,07,22.20
2015,07,14,14,08,22.20
2015,07,14,14,09,22.10
2015,07,14,14,10,22.10
2015,07,14,14,11,22.10
2015,07,14,14,12,22.20
2015,07,14,14,13,22.20
2015,07,14,14,14,22.20
2015,07,14,14,15,22.30
2015,07,14,14,16,22.30
2015,07,14,14,17,22.40
2015,07,14,14,18,22.50
2015,07,14,14,19,22.50
2015,07,14,14,20,22.60
2015,07,14,14,21,22.60
2015,07,14,14,22,22.70
2015,07,14,14,23,22.70
2015,07,14,14,24,22.70
2015,07,14,14,25,22.80
2015,07,14,14,26,22.90
2015,07,14,14,27,22.90
2015,07,14,14,28,22.90
2015,07,14,14,29,22.90
2015,07,14,14,30,23.00
2015,07,14,14,31,23.10
2015,07,14,14,32,23.20
2015,07,14,14,33,23.20
2015,07,14,14,34,23.20
2015,07,14,14,35,23.20
2015,07,14,14,36,23.30
2015,07,14,14,37,23.30
2015,07,14,14,38,23.40
2015,07,14,14,39,23.40
2015,07,14,14,40,23.40
2015,07,14,14,41,23.40
2015,07,14,14,42,23.30
2015,07,14,14,43,23.30
2015,07,14,14,44,23.40
2015,07,14,14,45,23.40
2015,07,14,14,46,23.50
2015,07,14,14,47,23.60
2015,07,14,14,48,23.60
2015,07,14,14,49,23.60
2015,07,14,14,50,23.70
2015,07,14,14,51,23.70
2015,07,14,14,52,23.70
2015,07,14,14,53,23.70
2015,07,14,14,54,23.60
2015,07,14,14,55,23.60
2015,07,14,14,56,23.50
2015,07,14,14,57,23.50
2015,07,14,14,58,23.50
2015,07,14,14,59,23.40
2015,07,14,15,00,23.40
2015,07,14,15,01,23.30
2015,07,14,15,02,23.20
2015,07,14,15,03,23.10
2015,07,14,15,04,23.00
2015,07,14,15,05,23.00
2015,07,14,15,06,23.00
2015,07,14,15,07,23.00
2015,07,14,15,08,23.10
2015,07,14,15,09,23.20
2015,07,14,15,10,23.20
2015,07,14,15,11,23.20
2015,07,14,15,12,23.20
2015,07,14,15,13,23.10
2015,07,14,15,14,23.20
2015,07,14,15,15,23.10
2015,07,14,15,16,23.10
2015,07,14,15,17,23.10
2015,07,14,15,18,23.10
2015,07,14,15,19,23.00
2015,07,14,15,20,22.90
2015,07,14,15,21,22.90
2015,07,14,15,22,22.90
2015,07,14,15,23,23.00
2015,07,14,15,24,23.10
2015,07,14,15,25,23.10
2015,07,14,15,26,23.10
2015,07,14,15,27,23.20
2015,07,14,15,28,23.20
2015,07,14,15,29,23.20
2015,07,14,15,30,23.20
2015,07,14,15,31,23.20
2015,07,14,15,32,23.20
2015,07,14,15,33,23.30
2015,07,14,15,34,23.30
2015,07,14,15,35,23.40
2015,07,14,15,36,23.60
2015,07,14,15,37,23.70
2015,07,14,15,38,23.70
2015,07,14,15,39,23.60
2015,07,14,15,40,23.70
2015,07,14,15,41,23.70
2015,07,14,15,42,23.70
2015,07,14,15,43,23.70
2015,07,14,15,44,23.80
2015,07,14,15,45,23.90
2015,07,14,15,46,23.90
2015,07,14,15,47,24.00
2015,07,14,15,48,24.00
2015,07,14,15,49,24.10
2015,07,14,15,50,24.20
2015,07,14,15,51,24.10
2015,07,14,15,52,24.00
2015,07,14,15,53,24.00
2015,07,14,15,54,24.00
2015,07,14,15,55,23.90
2015,07,14,15,56,23.90
2015,07,14,15,57,23.90
2015,07,14,15,58,23.90
2015,07,14,15,59,23.90
2015,07,14,16,00,24.00
2015,07,14,16,01,24.00
2015,07,14,16,02,24.10
2015,07,14,16,03,24.10
2015,07,14,16,04,24.10
2015,07,14,16,05,24.20
2015,07,14,16,06,24.20
2015,07,14,16,07,24.20
2015,07,14,16,08,24.20
2015,07,14,16,09,24.20
2015,07,14,16,10,24.20
2015,07,14,16,11,24.20
2015,07,14,16,12,24.10
2015,07,14,16,13,24.10
2015,07,14,16,14,24.20
2015,07,14,16,15,24.10
2015,07,14,16,16,24.10
2015,07,14,16,17,24.00
2015,07,14,16,18,24.00
2015,07,14,16,19,24.00
2015,07,14,16,20,24.00
2015,07,14,16,21,24.10
2015,07,14,16,22,24.10
2015,07,14,16,23,24.20
2015,07,14,16,24,24.20
2015,07,14,16,25,24.30
2015,07,14,16,26,24.30
2015,07,14,16,27,24.40
2015,07,14,16,28,24.40
2015,07,14,16,29,24.40
2015,07,14,16,30,24.30
2015,07,14,16,31,24.20
2015,07,14,16,32,24.00
2015,07,14,16,33,23.90
2015,07,14,16,34,23.90
2015,07,14,16,35,23.80
2015,07,14,16,36,23.70
2015,07,14,16,37,23.60
2015,07,14,16,38,23.60
2015,07,14,16,39,23.60
2015,07,14,16,40,23.60
2015,07,14,16,41,23.70
2015,07,14,16,42,23.70
2015,07,14,16,43,23.80
2015,07,14,16,44,23.90
2015,07,14,16,45,24.00
2015,07,14,16,46,24.10
2015,07,14,16,47,24.10
2015,07,14,16,48,24.10
2015,07,14,16,49,24.10
2015,07,14,16,50,24.20
2015,07,14,16,51,24.20
2015,07,14,16,52,24.20
2015,07,14,16,53,24.20
2015,07,14,16,54,24.20
2015,07,14,16,55,24.10
2015,07,14,16,56,24.10
2015,07,14,16,57,24.00
2015,07,14,16,58,23.90
2015,07,14,16,59,23.80
2015,07,14,17,00,23.70
2015,07,14,17,01,23.60
2015,07,14,17,02,23.40
2015,07,14,17,03,23.30
2015,07,14,17,04,23.30
2015,07,14,17,05,23.20
2015,07,14,17,06,23.20
2015,07,14,17,07,23.20
2015,07,14,17,08,23.10
2015,07,14,17,09,23.10
2015,07,14,17,10,23.10
2015,07,14,17,11,23.10
2015,07,14,17,12,23.10
2015,07,14,17,13,23.10
2015,07,14,17,14,23.20
2015,07,14,17,15,23.20
2015,07,14,17,16,23.30
2015,07,14,17,17,23.30
2015,07,14,17,18,23.40
2015,07,14,17,19,23.30
2015,07,14,17,20,23.30
2015,07,14,17,21,23.30
2015,07,14,17,22,23.20
2015,07,14,17,23,23.20
2015,07,14,17,24,23.20
2015,07,14,17,25,23.20
2015,07,14,17,26,23.10
2015,07,14,17,27,23.10
2015,07,14,17,28,23.00
2015,07,14,17,29,23.00
2015,07,14,17,30,23.00
2015,07,14,17,31,23.00
2015,07,14,17,32,23.00
2015,07,14,17,33,22.90
2015,07,14,17,34,22.90
2015,07,14,17,35,22.90
2015,07,14,17,36,23.00
2015,07,14,17,37,23.00
2015,07,14,17,38,23.00
2015,07,14,17,39,23.00
2015,07,14,17,40,23.00
2015,07,14,17,41,23.10
2015,07,14,17,42,23.10
2015,07,14,17,43,23.10
2015,07,14,17,44,23.10
2015,07,14,17,45,23.10
2015,07,14,17,46,23.00
2015,07,14,17,47,23.00
2015,07,14,17,48,23.10
2015,07,14,17,49,23.10
2015,07,14,17,50,23.10
2015,07,14,17,51,23.00
2015,07,14,17,52,23.00
2015,07,14,17,53,23.00
2015,07,14,17,54,23.00
2015,07,14,17,55,23.00
2015,07,14,17,56,23.00
2015,07,14,17,57,23.00
2015,07,14,17,58,22.90
2015,07,14,17,59,22.80
2015,07,14,18,00,22.70
2015,07,14,18,01,22.70
2015,07,14,18,02,22.60
2015,07,14,18,03,22.50
2015,07,14,18,04,22.50
2015,07,14,18,05,22.40
2015,07,14,18,06,22.30
2015,07,14,18,07,22.20
2015,07,14,18,08,22.10
2015,07,14,18,09,22.00
2015,07,14,18,10,21.90
2015,07,14,18,11,21.90
2015,07,14,18,12,21.80
2015,07,14,18,13,21.80